TimeCST,TemperatureF,Dew PointF,Humidity,Sea Level PressureIn,VisibilityMPH,Wind Direction,Wind SpeedMPH,Gust SpeedMPH,PrecipitationIn,Events,Conditions,WindDirDegrees,DateUTC
12:15 AM,6.8,-4.0,61,29.90,5.0,ENE,34.5,39.1,N/A,,Overcast,60,2013-02-19 06:15:00
12:35 AM,3.2,-5.8,66,29.92,4.0,ENE,20.7,32.2,N/A,,Overcast,70,2013-02-19 06:35:00
12:55 AM,3.2,-2.2,78,29.93,10.0,ENE,28.8,38.0,N/A,,Mostly Cloudy,60,2013-02-19 06:55:00
1:15 AM,3.2,-5.8,66,29.93,4.0,ENE,31.1,38.0,N/A,,Overcast,60,2013-02-19 07:15:00
1:35 AM,3.2,-5.8,66,29.94,4.0,ENE,29.9,36.8,N/A,,Overcast,70,2013-02-19 07:35:00
1:55 AM,3.2,-5.8,66,29.95,2.5,ENE,29.9,35.7,N/A,,Overcast,70,2013-02-19 07:55:00
2:15 AM,3.2,-5.8,66,29.96,4.0,ENE,28.8,34.5,N/A,,Overcast,60,2013-02-19 08:15:00
2:35 AM,3.2,-5.8,66,29.97,5.0,ENE,25.3,33.4,N/A,,Overcast,60,2013-02-19 08:35:00
2:55 AM,1.4,-5.8,72,29.98,5.0,ENE,26.5,35.7,N/A,,Overcast,60,2013-02-19 08:55:00
3:15 AM,1.4,-5.8,72,29.98,4.0,ENE,28.8,36.8,N/A,,Overcast,70,2013-02-19 09:15:00
3:35 AM,3.2,-5.8,66,29.98,4.0,ENE,28.8,35.7,N/A,,Overcast,60,2013-02-19 09:35:00
3:55 AM,1.4,-5.8,72,29.99,4.0,ENE,24.2,39.1,N/A,,Overcast,60,2013-02-19 09:55:00
4:15 AM,3.2,-4.0,72,29.99,5.0,ENE,29.9,40.3,N/A,,Overcast,60,2013-02-19 10:15:00
4:35 AM,3.2,-5.8,66,30.00,5.0,ENE,23.0,36.8,N/A,,Overcast,70,2013-02-19 10:35:00
4:55 AM,3.2,-5.8,66,30.01,7.0,ENE,23.0,28.8,N/A,,Overcast,70,2013-02-19 10:55:00
5:15 AM,3.2,-2.2,78,30.02,2.0,ENE,27.6,34.5,N/A,,Overcast,70,2013-02-19 11:15:00
5:55 AM,3.2,-5.8,66,30.03,9.0,ENE,26.5,38.0,N/A,,Overcast,60,2013-02-19 11:55:00
6:15 AM,3.2,-4.0,72,30.04,5.0,ENE,26.5,33.4,N/A,,Overcast,70,2013-02-19 12:15:00
6:35 AM,3.2,-5.8,66,30.04,7.0,ENE,27.6,36.8,N/A,,Overcast,70,2013-02-19 12:35:00
6:55 AM,3.2,-7.6,61,30.05,6.0,ENE,31.1,35.7,N/A,,Overcast,70,2013-02-19 12:55:00
7:15 AM,1.4,-5.8,72,30.06,5.0,ENE,25.3,33.4,N/A,,Overcast,70,2013-02-19 13:15:00
7:35 AM,1.4,-5.8,72,30.07,7.0,ENE,29.9,36.8,N/A,,Mostly Cloudy,60,2013-02-19 13:35:00
7:55 AM,1.4,-7.6,66,30.08,5.0,ENE,25.3,31.1,N/A,,Mostly Cloudy,70,2013-02-19 13:55:00
8:15 AM,3.2,-5.8,66,30.09,5.0,ENE,27.6,36.8,N/A,,Overcast,70,2013-02-19 14:15:00
8:35 AM,1.4,-5.8,72,30.10,7.0,ENE,27.6,39.1,N/A,,Overcast,60,2013-02-19 14:35:00
8:55 AM,1.4,-7.6,66,30.12,9.0,ENE,27.6,36.8,N/A,,Overcast,60,2013-02-19 14:55:00
9:35 AM,1.4,-7.6,66,30.14,10.0,ENE,21.9,35.7,N/A,,Mostly Cloudy,60,2013-02-19 15:35:00
9:55 AM,1.4,-5.8,72,30.15,5.0,ENE,25.3,35.7,N/A,,Mostly Cloudy,60,2013-02-19 15:55:00
10:15 AM,1.4,-7.6,66,30.16,6.0,ENE,25.3,31.1,N/A,,Overcast,70,2013-02-19 16:15:00
10:35 AM,3.2,-7.6,61,30.16,7.0,SE,26.5,32.2,N/A,,Overcast,140,2013-02-19 16:35:00
10:55 AM,3.2,-5.8,66,30.18,6.0,NE,23.0,35.7,N/A,,Overcast,50,2013-02-19 16:55:00
11:15 AM,3.2,-5.8,66,30.18,7.0,North,-9999.0,-,N/A,,Overcast,0,2013-02-19 17:15:00
11:35 AM,5.0,-7.6,56,30.19,5.0,North,-9999.0,-,N/A,,Overcast,0,2013-02-19 17:35:00
12:15 PM,6.8,-5.8,56,30.19,10.0,North,-9999.0,-,N/A,,Mostly Cloudy,0,2013-02-19 18:15:00
12:35 PM,6.8,-2.2,67,30.19,10.0,North,-9999.0,-,N/A,,Mostly Cloudy,0,2013-02-19 18:35:00
12:55 PM,6.8,-2.2,67,30.20,10.0,North,-9999.0,-,N/A,,Mostly Cloudy,0,2013-02-19 18:55:00
1:15 PM,8.6,-2.2,62,30.19,10.0,North,-9999.0,-,N/A,,Mostly Cloudy,0,2013-02-19 19:15:00
1:35 PM,8.6,-2.2,62,30.20,10.0,North,-9999.0,-,N/A,,Partly Cloudy,0,2013-02-19 19:35:00
1:55 PM,8.6,-2.2,62,30.20,10.0,North,-9999.0,-,N/A,,Mostly Cloudy,0,2013-02-19 19:55:00
2:15 PM,8.6,-4.0,57,30.21,10.0,North,-9999.0,-,N/A,,Mostly Cloudy,0,2013-02-19 20:15:00
2:35 PM,8.6,-4.0,57,30.21,10.0,North,-9999.0,-,N/A,,Partly Cloudy,0,2013-02-19 20:35:00
2:55 PM,8.6,-2.2,62,30.22,10.0,North,-9999.0,-,N/A,,Partly Cloudy,0,2013-02-19 20:55:00
3:15 PM,8.6,-2.2,62,30.23,10.0,North,-9999.0,-,N/A,,Mostly Cloudy,0,2013-02-19 21:15:00
3:35 PM,8.6,-5.8,52,30.23,10.0,North,-9999.0,-,N/A,,Mostly Cloudy,0,2013-02-19 21:35:00
3:55 PM,8.6,-4.0,57,30.23,10.0,North,-9999.0,-,N/A,,Clear,0,2013-02-19 21:55:00
4:15 PM,6.8,-2.2,67,30.25,10.0,North,-9999.0,-,N/A,,Scattered Clouds,0,2013-02-19 22:15:00
4:35 PM,6.8,-4.0,61,30.25,10.0,North,-9999.0,-,N/A,,Partly Cloudy,0,2013-02-19 22:35:00
4:55 PM,6.8,-5.8,56,30.25,10.0,North,-9999.0,-,N/A,,Partly Cloudy,0,2013-02-19 22:55:00
5:15 PM,5.0,-5.8,61,30.26,10.0,North,-9999.0,-,N/A,,Mostly Cloudy,0,2013-02-19 23:15:00
6:35 PM,1.4,-7.6,66,30.29,10.0,North,-9999.0,-,N/A,,Mostly Cloudy,0,2013-02-20 00:35:00
6:55 PM,1.4,-7.6,66,30.29,10.0,North,-9999.0,-,N/A,,Mostly Cloudy,0,2013-02-20 00:55:00
7:15 PM,1.4,-7.6,66,30.30,10.0,North,-9999.0,-,N/A,,Partly Cloudy,0,2013-02-20 01:15:00
7:35 PM,-0.4,-9.4,66,30.31,10.0,North,-9999.0,-,N/A,,Clear,0,2013-02-20 01:35:00
7:55 PM,-0.4,-7.6,72,30.31,10.0,North,-9999.0,-,N/A,,Clear,0,2013-02-20 01:55:00
8:15 PM,-0.4,-9.4,66,30.32,10.0,North,-9999.0,-,N/A,,Clear,0,2013-02-20 02:15:00
8:35 PM,-0.4,-9.4,66,30.32,10.0,North,-9999.0,-,N/A,,Clear,0,2013-02-20 02:35:00
8:55 PM,-0.4,-9.4,66,30.32,10.0,North,-9999.0,-,N/A,,Clear,0,2013-02-20 02:55:00
9:15 PM,-0.4,-9.4,66,30.32,10.0,North,-9999.0,-,N/A,,Clear,0,2013-02-20 03:15:00
9:35 PM,-0.4,-9.4,66,30.33,10.0,North,-9999.0,-,N/A,,Clear,0,2013-02-20 03:35:00
9:55 PM,-0.4,-9.4,66,30.34,10.0,North,-9999.0,-,N/A,,Clear,0,2013-02-20 03:55:00
10:15 PM,-0.4,-9.4,66,30.35,10.0,North,-9999.0,-,N/A,,Clear,0,2013-02-20 04:15:00
10:35 PM,-0.4,-9.4,66,30.35,10.0,North,-9999.0,-,N/A,,Clear,0,2013-02-20 04:35:00
10:55 PM,-2.2,-9.4,71,30.36,10.0,North,-9999.0,-,N/A,,Clear,0,2013-02-20 04:55:00
11:15 PM,-2.2,-9.4,71,30.36,10.0,North,-9999.0,-,N/A,,Clear,0,2013-02-20 05:15:00
11:35 PM,-2.2,-9.4,71,30.37,10.0,North,-9999.0,-,N/A,,Clear,0,2013-02-20 05:35:00
11:55 PM,-2.2,-9.4,71,30.38,10.0,North,-9999.0,-,N/A,,Clear,0,2013-02-20 05:55:00